Superior, WI

4:59 PM CDT on August 23, 2017 (GMT -0500)
Bong

Weather History for KSUW - July, 2013

Change the Weather History Date:

Tuesday, July 16, 2013

  Actual Average Record
Temperature  
Mean Temperature 74 °F -  
Max Temperature 90 °F 76 °F 94 °F (1964)
Min Temperature 58 °F 56 °F 41 °F (2014)
Cooling Degree Days 9    
Growing Degree Days 24 (Base 50)    
Moisture  
Dew Point 65 °F    
Average Humidity 80    
Maximum Humidity 100    
Minimum Humidity 51    
Precipitation  
Precipitation 0.00 in - - ()
Sea Level Pressure  
Sea Level Pressure 30.16 in    
Wind  
Wind Speed 4 mph (WSW)    
Max Wind Speed 15 mph    
Max Gust Speed 20 mph    
Visibility 7 miles    
Events Fog    
Averages and records for this station are not official NWS values.
T = Trace of Precipitation, MM = Missing Value Source: NWS Daily Summary

Daily Weather History Graph

Daily Weather History Graph

Search for Another Location

Airport or City:

Trip Planner

Search our weather history database for the weather conditions in past years. The results will help you decide how hot, cold, wet, or windy it might be!

Date:

Astronomy

Jul. 16, 2013 Rise Set
Actual Time 5:30 AM CDT 8:57 PM CDT
Civil Twilight 4:53 AM CDT 9:34 PM CDT
Nautical Twilight 4:03 AM CDT 10:24 PM CDT
Astronomical Twilight 2:59 AM CDT 11:27 PM CDT
Moon 2:30 PM CDT (7/16) 12:12 AM CDT (7/16)
Length of Visible Light 16h 41m
Length of Day
15h 26m
First Quarter, 56% of the Moon is Illuminated
Jul 16
First Quarter
Jul 22
Full
Jul 29
Last Quarter
Aug 6
New
Aug 14
First Quarter

Hourly Weather History & Observations

Time (CDT) Temp. Heat Index Dew Point Humidity Pressure Visibility Wind Dir Wind Speed Gust Speed Precip Events Conditions
12:15 AM 58.8 °F - 58.6 °F 99% 30.20 in 3.0 mi NE 4.6 mph - N/A   Overcast
12:35 AM 58.6 °F - 58.5 °F 99% 30.20 in 2.0 mi NE 3.5 mph - N/A   Overcast
12:55 AM 58.5 °F - 58.5 °F 100% 30.20 in 1.5 mi Calm Calm - N/A   Overcast
1:15 AM 58.3 °F - 58.1 °F 99% 30.20 in 1.2 mi Calm Calm - N/A   Overcast
1:35 AM 58.5 °F - 58.5 °F 100% 30.20 in 0.8 mi Calm Calm - N/A   Overcast
1:55 AM 58.6 °F - 58.6 °F 100% 30.20 in 2.0 mi Calm Calm - N/A   Overcast
2:15 AM 59.0 °F - 59.0 °F 100% 30.20 in 0.8 mi NNE 3.5 mph - N/A   Overcast
2:35 AM 59.0 °F - 59.0 °F 100% 30.20 in 0.5 mi NNE 3.5 mph - N/A Fog Fog
2:55 AM 59.0 °F - 59.0 °F 100% 30.20 in 0.8 mi Calm Calm - N/A   Overcast
3:15 AM 58.6 °F - 58.6 °F 100% 30.19 in 1.5 mi Calm Calm - N/A   Overcast
3:35 AM 58.6 °F - 58.6 °F 100% 30.19 in 0.8 mi NE 4.6 mph - N/A   Overcast
3:55 AM 58.6 °F - 58.6 °F 100% 30.19 in 0.5 mi NNE 3.5 mph - N/A Fog Fog
4:15 AM 58.1 °F - 58.1 °F 100% 30.19 in 0.5 mi ENE 3.5 mph - N/A Fog Fog
4:35 AM 58.1 °F - 58.1 °F 100% 30.19 in 0.5 mi Calm Calm - N/A Fog Fog
4:55 AM 58.3 °F - 58.3 °F 100% 30.19 in 0.2 mi Calm Calm - N/A Fog Fog
5:15 AM 58.1 °F - 58.1 °F 100% 30.18 in 0.2 mi NE 3.5 mph - N/A Fog Fog
5:35 AM 58.3 °F - 58.3 °F 100% 30.18 in 0.5 mi NE 3.5 mph - N/A Fog Fog
5:55 AM 58.1 °F - 58.1 °F 100% 30.18 in 0.5 mi NE 3.5 mph - N/A Fog Fog
6:15 AM 58.1 °F - 58.1 °F 100% 30.18 in 1.2 mi NE 3.5 mph - N/A   Overcast
6:35 AM 58.3 °F - 58.3 °F 100% 30.18 in 3.0 mi NNE 3.5 mph - N/A   Overcast
6:55 AM 58.6 °F - 58.6 °F 100% 30.19 in 10.0 mi NE 3.5 mph - N/A   Overcast
7:15 AM 59.0 °F - 59.0 °F 100% 30.19 in 10.0 mi NE 3.5 mph - N/A   Overcast
7:35 AM 59.5 °F - 59.0 °F 98% 30.19 in 10.0 mi NE 3.5 mph - N/A   Mostly Cloudy
7:55 AM 61.3 °F - 59.7 °F 94% 30.19 in 10.0 mi ENE 3.5 mph - N/A   Scattered Clouds
8:15 AM 61.9 °F - 59.4 °F 91% 30.19 in 10.0 mi NE 3.5 mph - N/A   Clear
8:35 AM 63.1 °F - 59.9 °F 89% 30.19 in 10.0 mi Calm Calm - N/A   Clear
8:55 AM 64.6 °F - 61.0 °F 88% 30.19 in 10.0 mi Calm Calm - N/A   Clear
9:15 AM 66.0 °F - 62.1 °F 87% 30.19 in 10.0 mi NNW 3.5 mph - N/A   Clear
9:35 AM 68.0 °F - 63.5 °F 85% 30.18 in 10.0 mi Calm Calm - N/A   Clear
9:55 AM 69.6 °F - 64.6 °F 84% 30.18 in 10.0 mi Calm Calm - N/A   Clear
10:15 AM 72.7 °F - 66.6 °F 81% 30.18 in 10.0 mi Calm Calm - N/A   Clear
10:55 AM 77.4 °F - 69.3 °F 76% 30.16 in 10.0 mi Calm Calm - N/A   Clear
11:15 AM 79.2 °F - 70.0 °F 73% 30.16 in 10.0 mi East 3.5 mph - N/A   Clear
11:35 AM 80.8 °F 84.7 °F 71.2 °F 73% 30.15 in 10.0 mi ENE 3.5 mph - N/A   Clear
11:55 AM 83.8 °F 89.8 °F 72.7 °F 69% 30.15 in 10.0 mi Calm Calm - N/A   Scattered Clouds
12:15 PM 82.6 °F 87.6 °F 72.0 °F 70% 30.15 in 10.0 mi SW 6.9 mph - N/A   Mostly Cloudy
12:35 PM 86.7 °F 92.1 °F 71.1 °F 59% 30.14 in 10.0 mi WSW 11.5 mph 17.3 mph N/A   Scattered Clouds
12:55 PM 87.8 °F 93.4 °F 71.1 °F 57% 30.14 in 10.0 mi SW 12.7 mph 19.6 mph N/A   Scattered Clouds
1:15 PM 88.9 °F 95.1 °F 71.4 °F 56% 30.14 in 10.0 mi WSW 10.4 mph 18.4 mph N/A   Scattered Clouds
1:35 PM 88.5 °F 95.3 °F 72.0 °F 58% 30.13 in 10.0 mi WSW 12.7 mph 18.4 mph N/A   Scattered Clouds
1:55 PM 87.3 °F 92.4 °F 70.2 °F 57% 30.13 in 10.0 mi WSW 11.5 mph 17.3 mph N/A   Clear
2:15 PM 89.2 °F 94.1 °F 69.6 °F 52% 30.13 in 10.0 mi WSW 15.0 mph 19.6 mph N/A   Scattered Clouds
2:35 PM 89.6 °F 95.2 °F 70.5 °F 53% 30.13 in 10.0 mi West 11.5 mph 18.4 mph N/A   Scattered Clouds
3:55 PM 90.0 °F 95.0 °F 69.6 °F 51% 30.13 in 10.0 mi West 13.8 mph 19.6 mph N/A   Clear
4:15 PM 90.1 °F 96.3 °F 71.1 °F 53% 30.12 in 10.0 mi WSW 13.8 mph 19.6 mph N/A   Clear
4:35 PM 89.6 °F 95.7 °F 70.7 °F 54% 30.12 in 10.0 mi SW 11.5 mph 18.4 mph N/A   Scattered Clouds
4:55 PM 90.0 °F 95.9 °F 70.9 °F 53% 30.12 in 10.0 mi West 10.4 mph - N/A   Scattered Clouds
5:15 PM 89.8 °F 95.1 °F 69.8 °F 52% 30.12 in 10.0 mi West 12.7 mph 19.6 mph N/A   Clear
5:35 PM 89.1 °F 93.7 °F 69.6 °F 52% 30.12 in 10.0 mi SW 12.7 mph 18.4 mph N/A   Clear
5:55 PM 89.1 °F 94.1 °F 70.0 °F 53% 30.12 in 10.0 mi WSW 12.7 mph 16.1 mph N/A   Scattered Clouds
6:15 PM 88.5 °F 94.0 °F 70.3 °F 55% 30.11 in 10.0 mi SW 12.7 mph - N/A   Scattered Clouds
6:35 PM 88.0 °F 92.5 °F 69.4 °F 54% 30.11 in 10.0 mi SW 11.5 mph 17.3 mph N/A   Clear
6:55 PM 87.4 °F 92.3 °F 70.0 °F 56% 30.11 in 10.0 mi WSW 8.1 mph - N/A   Clear
7:15 PM 86.5 °F 91.0 °F 69.8 °F 57% 30.11 in 10.0 mi SW 8.1 mph - N/A   Clear
7:35 PM 85.5 °F 90.4 °F 70.7 °F 61% 30.11 in 10.0 mi SW 9.2 mph - N/A   Clear
7:55 PM 84.6 °F 89.4 °F 70.5 °F 63% 30.11 in 10.0 mi SW 8.1 mph - N/A   Clear
8:15 PM 83.3 °F 87.6 °F 70.5 °F 65% 30.12 in 10.0 mi SW 6.9 mph - N/A   Clear
8:35 PM 81.9 °F 85.8 °F 70.3 °F 68% 30.12 in 10.0 mi SW 5.8 mph - N/A   Clear
8:55 PM 80.6 °F 83.9 °F 70.2 °F 70% 30.13 in 10.0 mi SW 4.6 mph - N/A   Clear
9:15 PM 79.2 °F - 70.3 °F 74% 30.14 in 10.0 mi SW 5.8 mph - N/A   Clear
9:35 PM 77.4 °F - 70.3 °F 79% 30.15 in 10.0 mi Calm Calm - N/A   Clear
9:55 PM 77.5 °F - 70.3 °F 78% 30.16 in 10.0 mi WSW 4.6 mph - N/A   Clear
10:15 PM 76.3 °F - 70.2 °F 81% 30.16 in 10.0 mi Calm Calm - N/A   Clear
10:35 PM 75.0 °F - 70.0 °F 84% 30.16 in 10.0 mi SW 4.6 mph - N/A   Clear
10:55 PM 73.4 °F - 69.6 °F 88% 30.16 in 10.0 mi SW 3.5 mph - N/A   Clear
11:15 PM 72.9 °F - 69.3 °F 88% 30.16 in 10.0 mi SW 5.8 mph - N/A   Clear
11:35 PM 73.6 °F - 69.3 °F 86% 30.16 in 10.0 mi WSW 4.6 mph - N/A   Clear
11:55 PM 73.0 °F - 68.9 °F 87% 30.16 in 10.0 mi SW 5.8 mph - N/A   Clear